User: anonymous   Login
Location: Unspecified
(0.0000°N, 0.0000°E)
Time: 21:19:48
(UTC+00:00)
Language:

Nova 1 - Orbit

View from above orbital plane
View from above orbital plane
View from above satellite
View from above satellite

Ground track
Ground track

The orbit data is extracted from the following two-line orbital elements,

1 12458U 81044A   17141.92046032 +.00000059 +00000-0 +12024-3 0  9993
2 12458 089.9544 121.5516 0016314 085.4720 333.7177 13.22960299738397
Epoch (UTC): 21 May 2017 22:05:27
Eccentricity: 0.0016314
inclination: 89.9544°
perigee height: 1161 km
apogee height: 1186 km
right ascension of ascending node: 121.5516°
argument of perigee: 85.4720°
revolutions per day: 13.22960299
mean anomaly at epoch: 333.7177°
orbit number at epoch: 73839

The dashed part of the orbit path shows where the satellite is in the earth's shadow,  

DLR